Weather in Newark

United States     40°43′49″N   74°10′44″W
temp.,
°C
wind,
m/s
gust,
m/s
humid.,
%
clouds,
%
prec.,
mm/h
press.,
hPa
HPBL,
m
18 may, tue
tue1823:00+17sw11485 0.0 102624
02:00+15w23658 0.0 102670
05:00+14wsw2471100 0.0 102697
08:00+18w3654100 0.0 1027301
11:00+25wsw45315 0.0 10272269
14:00+26w5528100 0.0 10252759
17:00+25w453467 0.0 10242009
20:00+22w394913 0.0 1025525
19 may, wed
wed1923:00+19wnw310625 0.0 1025297
02:00+17wnw26686 0.0 1025132
05:00+16wnw27695 0.0 1025160
08:00+20nw38535 0.0 1027334
11:00+26nnw34362 0.0 10261330
14:00+29nnw363020 0.0 10252742
17:00+26nnw3741100 0.0 1024498
20:00+25n234964 0.0 102575
20 may, thu
thu2023:00+23se0057100 0.0 102612
02:00+19ene258080 0.4 1027184
05:00+17ene247830 0.0 1028194
08:00+19e245985 0.0 1031496
11:00+23se333896 0.0 1031877
14:00+24se4331100 0.0 1031899
17:00+21se443440 0.0 1031600
20:00+17sse364556 0.0 1031307
21 may, fri
fri2123:00+16sse125477 0.0 1032139
02:00+14s126094 0.0 103279
05:00+14sw125978 0.0 103246
08:00+17wsw2347100 0.0 1033325
11:00+22sw2338100 0.0 1031740
14:00+23ssw1244100 0.0 1030736
17:00+20se2356100 0.0 1029169
20:00+18e2266100 0.1 1029129
22 may, sat
sat2223:00+17s1277100 0.3 102891
02:00+16sw2486100 0.8 1026126
05:00+16sw2490100 0.1 1024140
08:00+17ssw2689100 0.2 1024259
11:00+19sw3571100 0.1 1022352
14:00+25sw3453100 0.1 1019921
17:00+22w3778100 1.1 1017320
20:00+20sw1188100 1.8 101526